Terug naar catalogus

ARIANE 5 R/B

ActiefGTO
NORAD 49058·ROCKET BODY·🇫🇷 France

Gelanceerd Jul 30, 2021 vanaf Guiana Space Centre

Loading…

TLE

VerouderendSource: Space-Track

Epoch: Sep 14, 2026, 12:09 UTC

1 49058U 21069D   26257.50653660  .00005879  00000-0  14076-2 0  9996
2 49058   2.8821   4.0532 7125820   0.4829 359.8914  2.48091760 44601

Volg ARIANE 5 R/B in realtime met AllMySat

Download on the App Store